sat.trackr.live / text

‹ back to catalog

STARLINK-35786

NORAD 67040 · 2025-294L

PAYLOAD ACTIVE UNKNOWN

§ Identity

Operator
Country
US
Launch date
2025-12-11
Launch site
AFETR
Launch vehicle
Mass (kg)
RCS (m²)

Purposes: comms

External: N2YO · Heavens-Above · Gunter

§ Orbital elements

Epoch: 2026-05-24T21:49:49.726848Z

Period
94.27 min
Inclination
43.0038°
Eccentricity
0.0002006
Mean motion
15.27602802 rev/d
Perigee alt
481.6 km
Apogee alt
484.4 km
Semi-major
6,861.1 km
B*
6.6032e-4
RAAN
327.8406°
Arg perigee
283.1890°
Mean anomaly
76.8738°
Rev number
2,645

§ Raw data

STARLINK-357861 67040U 25294L   26144.90960332  .00017965  00000+0  66032-3 0  99952 67040  43.0038 327.8406 0002006 283.1890  76.8738 15.27602802 26455

JSON: /api/v1/satellites/67040 · /tle

For live sub-satellite position, see the globe view (requires WebGL).

§ Visibility from observer

Set your observer location to see the next 7 days of passes ≥ 10°. The values pass through the URL so the page stays shareable.

No JS? Fill the form by hand. The geolocation button needs JavaScript.